CAPE
0 0 1 1 2 1 0 0 0 0 0 3 5 4 3 4 3 0 0 0 0 2 0 0 0 1 4 2 1 0 0 0 4 1 1 2 0 1 0 4 2 0 0 0 0 0 0 0 0 0 0 0 0 0
0 0 0 0 1 1 0 1 0 0 0 0 3 4 4 2 2 1 0 0 0 0 0 0 0 2 12 3 0 0 0 0 9 0 0 0 2 0 1 0 3 1 0 0 0 1 0 0 0 0 0 0 0 0
0 0 1 1 1 0 0 0 0 0 0 1 3 2 2 2 0 4 0 0 0 0 0 0 0 0 0 0 0 0 0 0 0 0 7 0 0 0 0 1 0 0 0 1 0 0 0 0 0 0 0 0 0 0
0 0 2 1 0 1 0 0 0 0 1 2 2 1 1 0 0 0 0 0 0 0 1 0 0 0 0 0 0 0 0 0 0 0 0 0 2 0 0 0 0 0 0 0 1 0 0 0 0 0 0 0 0 0
0 1 2 0 1 1 1 0 0 0 1 1 1 0 0 0 0 0 0 0 0 0 0 0 0 0 0 0 0 0 0 0 0 0 0 0 0 0 0 0 1 0 0 0 0 0 0 0 0 0 0 0 0 0
0 1 1 1 1 2 0 0 0 0 1 0 0 0 0 0 0 0 0 0 0 0 1 0 0 0 0 0 0 0 0 0 0 0 0 0 0 0 0 0 0 0 0 0 0 0 0 0 0 0 0 0 0 0
0 1 0 1 1 1 0 0 1 0 0 0 0 0 0 0 0 0 0 0 0 0 0 0 0 0 0 0 0 0 0 0 0 0 0 0 0 0 0 1 0 0 0 0 0 0 0 0 0 0 0 0 0 0
0 0 1 0 0 0 2 1 2 0 0 0 0 0 0 0 0 0 0 0 0 0 0 0 0 0 0 0 0 0 0 0 0 0 0 0 0 0 2 2 0 0 0 0 0 0 0 0 0 0 0 0 0 0
0 0 0 0 0 0 0 0 2 0 0 0 0 0 0 0 0 0 0 0 0 0 0 4 1 1 0 0 0 0 0 0 0 0 0 0 0 1 5 0 0 0 0 0 0 0 0 0 0 0 0 0 0 0
0 0 0 0 0 1 0 1 1 0 0 0 0 0 0 0 0 0 0 0 0 1 0 5 0 4 0 0 0 0 0 0 0 0 0 0 3 14 0 0 0 0 0 0 0 0 0 0 0 0 0 0 0 0
0 0 0 0 0 1 1 1 0 0 0 0 0 0 0 0 0 0 0 0 0 0 1 2 5 0 0 0 0 0 0 0 0 0 2 1 1 0 0 0 0 0 0 0 0 0 0 0 0 0 0 0 0 0
0 0 0 0 0 0 1 0 0 0 0 0 1 0 0 0 0 0 0 0 0 0 1 0 0 0 0 0 0 0 0 0 0 0 0 0 0 0 0 0 0 0 0 0 0 0 0 0 0 0 0 0 0 0
0 0 0 0 1 0 0 0 0 0 0 0 0 0 0 0 0 0 0 0 0 0 0 0 0 0 0 0 0 0 0 0 0 0 1 0 0 0 0 0 0 0 0 0 0 0 0 0 0 0 0 0 0 0
0 0 1 0 1 0 0 0 0 0 0 0 0 0 0 9 0 0 0 0 0 2 4 0 0 0 0 0 0 0 0 0 0 0 1 0 0 0 0 0 0 0 0 0 0 0 0 0 0 0 0 0 0 0
0 0 0 0 0 0 0 0 0 0 0 0 0 0 0 0 0 0 0 0 0 0 2 1 0 0 0 0 0 0 0 0 0 0 2 1 0 0 0 0 0 0 0 0 0 0 0 0 0 0 0 0 0 0
0 0 0 0 0 0 0 0 0 0 7 3 0 0 1 4 1 0 0 0 0 0 1 0 0 0 0 0 2 0 0 0 3 3 0 0 0 0 0 0 0 0 0 0 0 0 0 0 0 0 0 0 0 0
0 0 7 4 0 0 0 0 4 17 0 0 0 0 0 0 1 8 5 0 0 0 2 4 0 4 0 0 0 0 0 0 9 0 0 0 0 0 0 0 0 0 0 0 0 0 0 0 0 0 0 0 0 0
0 2 6 0 0 0 0 0 8 0 0 0 0 0 3 4 0 8 0 0 0 0 1 0 0 0 0 0 4 4 15 10 0 1 0 0 0 0 0 0 0 0 0 0 0 0 0 0 0 1 0 0 0 0
2 1 0 0 0 0 3 12 11 1 0 0 4 0 0 7 11 12 3 2 4 3 0 1 1 2 1 1 1 10 4 2 0 0 0 0 0 0 0 0 0 0 0 0 0 0 0 0 0 0 0 0 0 0
0 1 0 0 0 2 1 15 12 1 0 1 0 7 8 4 11 4 0 2 0 0 0 0 2 2 1 0 0 0 2 17 5 0 0 0 0 0 0 0 0 0 0 0 0 0 0 1 0 0 0 0 0 0
0 0 0 0 4 3 2 0 11 7 0 0 0 0 2 5 21 9 0 0 0 1 0 0 0 0 0 0 0 0 0 4 6 0 0 0 0 0 0 0 0 0 0 0 0 0 0 0 0 0 0 0 0 0
7 0 5 0 1 0 1 0 0 0 0 0 0 0 2 3 14 8 0 0 0 1 2 0 0 0 6 4 13 16 11 9 2 0 0 0 0 0 0 0 0 0 0 0 0 0 0 0 0 0 0 0 0 0
0 0 11 0 0 0 0 0 10 8 0 0 0 4 3 7 0 0 0 0 0 0 0 0 2 0 0 0 14 0 0 0 0 0 0 0 0 0 0 0 0 0 0 0 0 0 0 0 0 0 0 0 0 0
0 3 2 2 0 0 1 1 1 1 0 0 0 3 15 23 2 0 0 0 0 0 1 0 0 0 0 0 0 0 0 0 0 0 0 0 0 0 0 0 0 0 0 0 0 0 0 0 0 0 0 0 0 0
6 0 0 0 0 1 0 0 0 0 0 0 0 0 0 0 0 0 0 0 0 0 0 0 0 0 0 0 0 0 0 0 0 2 0 0 0 0 0 0 0 0 0 0 0 0 0 0 0 0 0 0 0 0
0 0 0 0 0 0 0 0 1 1 0 0 0 0 4 4 0 0 0 0 0 0 0 0 0 0 0 0 0 0 0 0 0 0 0 0 0 0 0 0 0 0 0 0 0 0 0 0 0 0 0 0 0 0
0 0 0 0 1 4 2 2 2 8 0 0 0 0 1 0 0 0 0 0 0 0 0 0 0 0 0 0 0 0 0 0 0 0 0 0 0 0 0 0 0 0 0 0 0 0 0 0 0 0 0 0 0 0
0 1 4 10 10 5 0 12 3 0 0 0 2 1 0 0 0 0 0 0 0 0 0 0 0 0 0 0 0 0 0 0 0 0 0 0 0 0 0 0 0 0 0 0 0 0 0 0 0 0 0 0 0 0
0 0 0 0 0 10 1 1 0 0 0 0 0 0 0 0 0 0 0 0 0 0 0 0 0 0 0 0 0 0 0 0 0 0 0 0 0 0 0 0 0 0 0 0 0 0 0 0 0 0 0 0 0 0
0 0 0 0 8 4 0 0 0 0 0 0 0 0 0 0 0 0 0 0 0 0 0 0 0 0 0 0 0 0 0 0 1 1 0 0 0 0 0 0 0 0 0 0 0 0 0 0 0 0 0 0 0 0
0 3 2 6 2 0 0 0 0 0 0 1 0 0 0 0 0 0 0 0 0 0 0 0 0 0 0 0 0 1 1 0 1 1 0 0 0 0 0 0 0 0 0 0 0 0 0 0 0 0 0 0 0 0
0 0 15 4 0 0 0 0 0 0 1 0 0 0 0 0 0 0 0 0 0 0 0 0 0 0 0 0 0 0 0 0 0 0 0 0 0 0 0 0 0 0 0 0 0 0 0 0 0 0 0 0 0 0
5 18 4 0 0 0 0 0 0 0 0 0 0 0 0 0 0 0 0 0 0 0 0 0 0 0 1 0 0 0 0 0 0 0 0 0 0 0 0 0 0 0 0 0 0 0 0 0 0 0 0 0 0 0
CIN
-0 -0 -0 -0 -0 -0 -0 -0 -0 -0 -0 -0 -0 -0 -0 -0 -0 -0 -0 -0 -0 -0 -0 -0 -0 -1 -2 -1 -0 -0 -0 -1 -0 -0 -0 -0 -0 -0 -0 -0 -0 -0 -9 -0 -0 -0 -0 -3 -1 -0 -0 -0 -0 -0
-0 -0 -0 -0 -0 -0 -0 -0 -0 -0 -0 -0 -0 -0 -0 -0 -0 -0 -0 -0 -0 -0 -0 -0 -3 -37 -13 -20 -0 -0 -0 -0 -1 -0 -0 -0 -0 -0 -0 -0 -2 -0 -0 -0 -0 -0 -0 -0 -0 -0 -0 -0 -0 -0
-0 -0 -0 -0 -0 -0 -0 -0 -0 -0 -0 -0 -0 -0 -0 -0 -0 -0 -0 -0 -0 -0 -0 -0 -0 -0 -0 -0 -0 -0 -0 -0 -0 -0 -2 -0 -0 -0 -0 -0 -0 -0 -0 -0 -0 -0 -0 -0 -0 -0 -0 -0 -0 -0
-0 -0 -0 -0 -0 -0 -0 -0 -0 -0 -0 -0 -0 -0 -0 -0 -0 -0 -0 -0 -0 -0 -0 -0 -0 -0 -0 -0 -0 -0 -0 -0 -0 -0 -0 -2 -0 -0 -0 -0 -0 -0 -0 -0 -0 -0 -0 -0 -0 -0 -0 -0 -0 -0
-0 -0 -0 -0 -0 -0 -0 -0 -0 -0 -0 -0 -0 -0 -0 -0 -0 -0 -0 -0 -0 -0 -0 -0 -0 -0 -0 -0 -0 -0 -0 -0 -0 -0 -0 -0 -0 -0 -0 -0 -0 -0 -0 -0 -0 -0 -0 -0 -0 -0 -0 -0 -0 -0
-0 -0 -0 -0 -0 -0 -0 -0 -0 -0 -0 -0 -0 -0 -0 -0 -0 -0 -0 -0 -0 -0 -4 -0 -0 -0 -0 -0 -0 -0 -0 -0 -0 -0 -0 -0 -0 -0 -0 -0 -0 -0 -0 -0 -0 -0 -0 -0 -0 -0 -0 -0 -0 -0
-0 -0 -0 -0 -0 -0 -0 -0 -0 -0 -0 -0 -0 -0 -0 -0 -0 -0 -0 -0 -0 -0 -0 -0 -0 -0 -0 -0 -0 -0 -0 -0 -0 -0 -0 -0 -0 -0 -1 -0 -0 -0 -0 -0 -0 -0 -0 -0 -0 -0 -0 -0 -0 -0
-0 -0 -0 -0 -0 -0 -0 -0 -0 -0 -0 -0 -0 -0 -0 -0 -0 -0 -0 -0 -0 -0 -3 -0 -0 -0 -0 -0 -0 -0 -0 -0 -0 -0 -0 -0 -0 -0 -1 -0 -0 -0 -0 -0 -0 -0 -0 -0 -0 -0 -0 -0 -0 -0
-0 -0 -0 -0 -0 -0 -0 -0 -0 -0 -0 -0 -0 -0 -0 -0 -0 -0 -0 -0 -0 -0 -1 -16 -2 -0 -0 -0 -0 -0 -0 -0 -0 -0 -0 -0 -0 -0 -4 -0 -0 -0 -0 -0 -0 -0 -0 -0 -0 -0 -0 -0 -0 -0
-0 -0 -0 -0 -0 -0 -0 -0 -0 -0 -0 -0 -0 -0 -0 -0 -0 -0 -0 -0 -0 -31 -0 -7 -0 -3 -0 -0 -0 -0 -0 -0 -0 -0 -0 -0 -1 -6 -0 -0 -0 -0 -0 -0 -0 -0 -0 -0 -0 -0 -0 -0 -0 -0
-0 -0 -0 -0 -0 -0 -0 -0 -0 -0 -0 -0 -0 -0 -0 -0 -0 -0 -0 -0 -0 -0 -11 -9 -10 -0 -0 -0 -0 -0 -0 -0 -0 -0 -2 -0 -3 -0 -0 -0 -0 -0 -0 -0 -0 -0 -0 -0 -0 -0 -0 -0 -0 -0
-0 -0 -0 -0 -0 -0 -0 -0 -0 -0 -0 -0 -0 -0 -0 -0 -0 -0 -0 -0 -0 -2 -5 -3 -0 -0 -0 -0 -0 -0 -0 -0 -0 -0 -0 -0 -0 -0 -0 -0 -0 -0 -0 -0 -0 -0 -0 -0 -0 -0 -0 -0 -0 -0
-0 -0 -0 -0 -0 -0 -0 -0 -0 -0 -0 -0 -1 -0 -0 -0 -0 -0 -0 -0 -0 -0 -0 -0 -0 -0 -0 -0 -0 -0 -0 -0 -0 -1 -0 -0 -0 -0 -0 -0 -0 -0 -0 -0 -0 -0 -0 -0 -0 -0 -0 -0 -0 -0
-0 -0 -0 -0 -0 -0 -0 -0 -0 -0 -0 -0 -0 -0 -0 -3 -0 -0 -0 -0 -0 -8 -5 -0 -0 -0 -0 -0 -0 -0 -0 -0 -0 -0 -0 -0 -0 -0 -0 -0 -0 -0 -0 -0 -0 -0 -0 -0 -0 -0 -0 -0 -0 -0
-0 -0 -0 -0 -0 -0 -0 -0 -0 -0 -0 -0 -0 -0 -0 -0 -3 -0 -0 -0 -2 -0 -3 -2 -0 -0 -0 -0 -0 -0 -0 -0 -0 -0 -2 -0 -0 -0 -0 -0 -0 -0 -0 -0 -0 -0 -0 -0 -0 -0 -0 -0 -2 -0
-0 -0 -0 -6 -0 -0 -0 -0 -0 -0 -13 -5 -0 -0 -9 -5 -9 -0 -0 -0 -0 -0 -18 -3 -7 -0 -1 -0 -2 -0 -0 -0 -1 -1 -0 -0 -0 -0 -0 -0 -0 -0 -0 -0 -0 -0 -0 -0 -0 -0 -0 -0 -0 -0
-0 -0 -10 -9 -0 -0 -0 -0 -13 -0 -1 -0 -0 -0 -0 -0 -8 -11 -10 -0 -0 -0 -6 -4 -5 -15 -0 -0 -0 -0 -0 -8 -5 -0 -0 -0 -0 -0 -0 -0 -0 -0 -0 -0 -0 -0 -0 -0 -0 -0 -0 -0 -0 -0
-0 -12 -11 -4 -0 -0 -8 -0 -14 -1 -0 -0 -0 -0 -20 -22 -0 -15 -0 -0 -0 -1 -0 -0 -0 -0 -0 -0 -1 -0 -0 -10 -0 -3 -0 -0 -0 -0 -0 -0 -0 -0 -0 -0 -0 -0 -0 -0 -0 -0 -0 -0 -0 -0
-13 -11 -0 -0 -0 -0 -13 -6 -8 -0 -0 -0 -13 -13 -4 -8 -19 -18 -18 -13 -8 -12 -0 -4 -0 -0 -0 -0 -0 -0 -0 -8 -0 -0 -0 -0 -0 -0 -0 -0 -0 -0 -0 -0 -0 -0 -0 -0 -0 -0 -0 -0 -0 -0
-9 -19 -0 -0 -0 -4 -12 -1 -12 -5 -0 -1 -11 -9 -10 -9 -19 -25 -0 -5 -1 -0 -0 -0 -0 -0 -0 -0 -0 -0 -6 -9 -15 -0 -0 -0 -0 -0 -0 -0 -0 -0 -0 -0 -0 -0 -0 -0 -0 -0 -0 -0 -0 -0
-0 -0 -0 -0 -5 -5 -5 -1 -1 -9 -0 -0 -0 -0 -16 -19 -17 -16 -0 -0 -0 -0 -3 -0 -0 -0 -0 -0 -0 -0 -0 -12 -8 -0 -0 -0 -0 -0 -0 -0 -0 -0 -0 -0 -0 -0 -0 -0 -0 -0 -0 -0 -0 -0
-7 -0 -9 -1 -1 -0 -2 -0 -0 -14 -0 -0 -0 -0 -15 -6 -9 -7 -0 -0 -0 -3 -9 -0 -0 -0 -2 -4 -7 -9 -13 -14 -10 -0 -0 -0 -0 -0 -0 -0 -0 -0 -0 -0 -0 -0 -0 -0 -0 -0 -0 -0 -0 -0
-0 -2 -3 -0 -0 -0 -0 -1 -0 -2 -0 -0 -0 -3 -5 -5 -3 -0 -0 -0 -0 -3 -2 -0 -2 -0 -0 -0 -9 -15 -0 -0 -0 -0 -0 -0 -0 -0 -0 -0 -0 -0 -0 -0 -0 -0 -0 -0 -0 -0 -0 -0 -0 -0
-0 -5 -6 -9 -0 -0 -3 -1 -5 -0 -0 -0 -0 -3 -4 -4 -1 -0 -0 -0 -1 -2 -4 -0 -0 -0 -0 -0 -0 -0 -0 -0 -0 -0 -0 -0 -0 -0 -0 -0 -0 -0 -0 -0 -0 -0 -0 -0 -0 -0 -0 -0 -0 -0
-0 -0 -1 -0 -0 -3 -0 -0 -0 -0 -0 -0 -0 -1 -0 -0 -0 -0 -0 -0 -0 -0 -0 -0 -0 -0 -0 -0 -0 -0 -0 -0 -0 -69 -0 -63 -0 -0 -0 -0 -0 -0 -0 -0 -0 -0 -0 -0 -0 -0 -0 -0 -0 -0
-0 -0 -0 -8 -0 -0 -0 -10 -3 -0 -0 -0 -0 -0 -0 -0 -0 -0 -0 -0 -0 -0 -0 -0 -0 -0 -0 -0 -0 -0 -0 -0 -0 -0 -0 -0 -0 -0 -0 -0 -0 -0 -0 -0 -0 -0 -0 -0 -0 -0 -0 -0 -0 -0
-0 -0 -0 -0 -7 -4 -1 -5 -5 -3 -0 -0 -1 -0 -2 -1 -0 -0 -0 -0 -0 -0 -0 -0 -0 -0 -0 -0 -0 -0 -0 -0 -0 -0 -0 -0 -0 -0 -0 -0 -0 -0 -0 -0 -0 -0 -0 -0 -0 -0 -0 -0 -0 -0
-0 -9 -2 -2 -1 -3 -0 -1 -8 -0 -0 -0 -5 -5 -1 -0 -0 -0 -0 -0 -0 -0 -0 -0 -0 -0 -0 -0 -0 -0 -0 -0 -0 -0 -0 -0 -0 -0 -0 -0 -0 -0 -0 -0 -0 -0 -0 -0 -0 -0 -0 -0 -0 -0
-0 -0 -0 -0 -0 -1 -6 -2 -0 -0 -0 -0 -2 -3 -0 -0 -0 -0 -0 -0 -0 -0 -0 -0 -0 -0 -0 -0 -0 -0 -0 -0 -0 -0 -0 -0 -0 -0 -0 -0 -0 -0 -0 -0 -0 -0 -0 -0 -0 -0 -0 -0 -0 -0
-0 -0 -0 -0 -1 -1 -0 -0 -0 -0 -0 -0 -0 -0 -0 -0 -0 -0 -0 -0 -0 -0 -0 -0 -0 -0 -0 -0 -0 -0 -0 -0 -0 -0 -0 -0 -0 -0 -0 -0 -0 -0 -0 -0 -0 -0 -0 -0 -0 -0 -0 -0 -0 -0
-0 -2 -1 -1 -3 -2 -0 -0 -0 -1 -2 -10 -14 -0 -0 -0 -0 -0 -0 -0 -0 -0 -0 -0 -0 -0 -0 -0 -0 -0 -0 -0 -0 -0 -0 -0 -0 -0 -0 -0 -0 -0 -0 -0 -0 -0 -0 -0 -0 -0 -0 -0 -0 -0
-0 -0 -1 -3 -1 -0 -0 -0 -0 -0 -5 -11 -0 -0 -0 -0 -0 -0 -0 -0 -0 -0 -0 -0 -0 -0 -0 -0 -0 -0 -0 -0 -0 -0 -0 -0 -0 -0 -0 -0 -0 -0 -0 -0 -0 -0 -0 -0 -0 -0 -0 -0 -0 -0
-2 -4 -9 -0 -0 -0 -0 -0 -0 -0 -0 -1 -0 -0 -0 -0 -0 -0 -0 -0 -0 -0 -0 -0 -0 -2 -1 -2 -0 -0 -0 -0 -0 -0 -0 -0 -0 -0 -0 -0 -0 -0 -0 -0 -0 -0 -0 -0 -0 -0 -0 -0 -0 -0
Wind_Speed
26 26 28 28 29 29 29 29 32 32 32 30 29 27 22 31 23 29 5 10 20 18 12 7 12 11 12 14 16 15 8 13 8 11 19 18 15 15 18 17 17 26 24 26 28 22 24 20 15 20 8 2 6 6
25 27 26 27 28 28 29 30 31 31 30 29 27 26 22 28 28 30 19 19 21 17 14 12 9 10 11 12 11 7 10 9 5 8 14 14 15 16 16 16 18 16 23 26 25 17 12 5 7 2 4 5 2 6
26 27 27 28 28 27 28 30 30 29 28 27 25 22 17 22 27 28 13 16 21 18 18 15 12 13 15 15 11 11 6 10 8 8 7 10 7 14 12 8 8 4 4 10 13 11 6 8 7 7 7 6 6 5
25 26 26 27 26 26 27 30 29 28 26 23 22 18 14 5 24 26 21 15 20 19 18 17 17 15 14 14 14 8 8 6 4 2 3 3 4 2 2 2 2 9 5 9 14 8 8 5 6 7 6 5 4 5
24 25 25 25 24 25 28 28 27 25 22 18 13 13 10 5 15 21 14 14 20 18 18 19 18 16 17 15 14 14 12 7 5 3 3 3 4 1 2 3 8 3 6 6 5 5 5 3 5 7 7 6 6 6
24 25 25 23 24 25 27 27 24 22 18 10 7 8 7 6 4 21 18 13 22 20 18 18 18 17 19 17 14 13 12 8 6 6 6 7 9 7 7 4 7 7 7 5 2 7 8 7 8 8 8 8 8 10
22 23 23 24 24 24 26 26 23 21 11 10 7 4 4 5 12 16 12 13 16 19 17 18 17 19 19 15 13 13 12 10 8 5 8 7 6 4 5 4 7 8 8 8 8 6 6 7 8 10 10 10 11 12
18 22 23 22 22 24 25 26 23 20 14 16 10 3 5 11 14 14 14 5 15 17 16 16 18 18 19 16 14 14 13 12 11 10 9 8 9 9 8 6 7 9 9 9 8 8 7 8 11 12 11 11 13 14
19 22 21 20 23 24 26 25 23 19 24 20 14 8 16 17 18 14 10 13 16 16 16 16 18 18 19 18 16 15 13 12 12 10 12 12 13 12 8 9 10 11 10 10 10 10 10 10 12 13 14 15 16 18
19 21 21 22 23 25 26 24 23 23 25 20 17 17 16 14 4 6 17 17 17 16 16 16 18 17 18 17 16 15 15 14 12 13 12 12 11 11 10 12 12 12 11 10 11 12 12 13 15 16 18 18 19 20
19 21 21 20 21 23 23 22 22 30 25 21 19 16 8 5 15 16 18 18 18 17 17 17 17 18 16 16 16 15 14 14 13 14 12 12 13 10 11 12 13 13 13 14 13 13 15 16 18 20 21 22 22 23
21 21 20 20 20 20 21 20 22 22 19 11 2 8 14 16 17 17 18 18 19 18 19 18 19 18 17 16 15 15 14 14 14 12 13 12 9 8 10 12 12 13 14 14 15 16 18 20 21 22 23 24 25 25
20 20 20 20 20 19 18 17 18 24 23 15 15 14 15 16 18 17 18 17 18 20 19 20 20 18 17 16 16 15 15 14 13 13 14 10 6 8 10 12 13 14 14 15 17 18 20 21 23 25 26 25 25 25
19 21 21 19 16 14 12 14 17 23 17 14 14 14 13 14 17 17 14 13 14 16 21 20 18 17 17 16 15 15 15 14 14 14 14 6 6 8 10 12 13 14 16 17 19 21 22 24 26 26 25 24 23 23
22 23 19 17 17 11 9 12 18 18 15 13 13 12 13 14 16 17 17 15 14 17 20 19 17 16 16 16 16 15 15 14 15 14 7 7 6 9 11 12 14 15 17 20 21 23 25 26 26 24 23 22 20 18
23 23 16 15 17 14 13 17 14 12 13 12 11 11 12 13 16 14 11 9 12 13 16 16 16 15 14 15 15 15 14 14 14 10 6 8 9 10 11 13 14 16 18 20 24 25 26 25 23 21 20 18 15 13
20 15 20 16 16 16 13 13 13 12 12 11 10 7 7 11 16 15 13 14 16 17 14 16 16 15 16 15 14 15 15 14 9 7 7 8 9 10 12 13 14 16 18 20 24 25 24 22 21 19 17 14 11 9
14 20 19 17 17 16 12 11 13 13 10 8 10 8 10 11 14 17 15 16 16 15 14 14 9 15 15 15 14 13 11 10 9 9 12 10 10 11 12 13 14 15 17 19 23 24 23 21 20 18 14 8 6 7
17 18 17 17 16 14 12 12 12 13 10 12 10 14 16 16 14 16 14 15 14 15 18 13 15 17 16 18 17 17 19 17 15 12 9 7 9 10 12 13 14 16 17 18 21 23 25 22 12 7 9 6 9 12
16 14 15 15 14 13 13 13 12 12 11 13 17 16 18 18 14 14 13 14 14 15 14 13 14 16 19 22 20 18 17 16 17 16 15 12 11 11 12 13 15 17 18 18 20 22 22 15 9 2 2 10 14 11
15 15 14 14 13 14 14 14 12 11 13 16 19 20 19 16 11 13 13 14 16 16 15 14 17 19 19 21 19 15 14 17 17 17 17 16 14 14 13 14 16 17 18 19 19 21 22 19 8 5 1 2 1 5
15 14 15 14 15 15 14 12 12 13 14 20 21 19 19 17 12 13 12 14 14 14 14 13 12 12 11 12 14 14 14 13 13 15 16 16 16 14 14 14 15 16 16 17 18 20 22 23 22 15 8 7 10 11
13 14 14 15 16 15 14 13 13 11 19 18 18 18 19 17 11 8 12 13 13 14 15 13 12 13 12 14 11 13 16 18 19 15 17 17 16 16 16 15 15 14 15 16 17 20 22 23 24 19 15 8 5 10
13 13 14 14 15 15 15 15 16 18 19 20 19 18 16 15 14 11 10 11 12 13 14 14 13 13 12 14 14 15 17 17 17 14 13 15 15 16 14 14 15 15 16 17 18 19 22 23 24 26 20 12 9 3
12 13 14 14 14 15 17 17 18 18 18 21 19 18 18 14 15 12 11 10 11 12 13 14 15 16 15 16 17 16 15 15 16 17 16 10 15 13 12 13 15 15 16 16 17 19 21 23 24 24 25 21 6 4
11 11 12 14 15 16 18 18 17 17 15 18 17 17 17 9 12 12 11 12 11 13 14 15 17 16 15 17 18 18 19 18 19 18 15 16 14 13 14 13 12 14 16 17 18 19 20 22 23 23 23 23 23 7
10 10 11 16 15 17 18 17 19 16 15 14 15 16 16 15 14 13 10 11 12 13 14 15 16 16 16 18 18 21 22 23 22 23 22 20 18 13 15 12 13 14 16 16 16 17 19 21 22 22 21 19 18 16
11 15 10 11 11 15 17 16 13 15 15 16 16 16 16 15 14 12 11 11 12 14 16 18 17 18 18 17 20 22 21 21 24 25 24 21 14 14 5 16 15 14 14 13 14 15 16 15 14 14 14 15 15 15
13 16 17 20 19 13 15 14 14 15 15 16 15 15 15 15 14 13 13 10 12 14 16 17 19 19 17 18 20 20 20 19 16 9 13 14 14 16 18 16 15 15 15 15 15 13 12 12 12 11 12 12 11 10
15 13 17 18 16 13 16 15 12 13 15 14 13 13 14 14 16 13 14 15 16 17 17 18 18 19 20 20 21 20 18 17 16 14 11 14 18 21 19 17 15 3 14 15 15 14 14 14 12 10 8 7 7 7
14 14 13 15 14 13 14 14 14 14 15 15 15 13 11 11 14 17 17 15 16 17 17 17 18 18 18 19 20 20 20 18 19 18 18 20 21 22 21 20 18 16 4 11 11 12 11 11 10 10 10 9 9 8
11 11 12 12 13 14 15 15 14 14 13 14 14 14 13 14 14 16 19 16 15 16 16 17 18 19 19 20 19 19 21 23 23 22 24 24 25 24 24 23 20 18 12 4 8 10 10 9 8 8 7 7 7 7
8 10 10 11 12 13 14 15 14 14 14 16 16 15 16 15 16 15 15 17 16 16 16 17 17 19 19 19 20 22 23 24 24 24 25 26 28 27 26 26 23 22 22 12 6 5 7 7 7 7 6 5 5 3
Wind_Direction
0 2 3 5 6 7 8 8 7 8 9 10 12 16 20 315 307 6 198 293 305 292 248 176 272 276 302 324 330 316 291 331 268 217 205 210 219 223 219 219 217 209 220 217 218 228 231 251 251 253 266 352 135 159
358 360 2 2 4 6 7 7 6 8 9 10 11 14 19 309 313 334 17 288 293 266 249 254 236 225 245 283 291 294 306 296 264 217 210 218 207 207 199 212 212 221 219 222 226 231 246 283 125 86 115 119 155 124
355 358 0 1 3 5 6 6 7 8 10 12 14 17 21 298 307 336 46 274 313 282 273 289 283 296 301 300 283 296 283 293 291 265 242 228 204 215 219 232 225 210 95 163 188 203 114 85 87 89 88 88 77 71
355 357 359 1 3 5 5 5 7 9 12 15 17 19 21 324 297 310 353 271 303 291 294 285 284 289 285 295 300 270 257 253 298 256 334 327 192 236 169 178 60 234 210 116 104 104 88 53 67 76 65 58 53 28
354 356 358 1 3 4 3 5 7 10 13 15 15 19 22 12 276 286 47 357 329 306 286 274 277 292 307 305 308 324 334 323 336 344 350 260 228 213 342 12 16 287 234 229 230 258 102 59 50 51 42 24 14 13
351 353 357 360 2 2 3 5 7 9 12 2 359 12 29 45 253 353 342 86 329 318 299 283 294 295 308 306 306 314 325 322 317 276 261 270 266 273 273 298 290 360 21 14 15 68 63 46 20 18 12 358 359 358
351 352 356 357 0 1 2 4 7 10 5 299 312 349 44 75 76 74 3 229 262 298 304 287 289 305 301 293 291 301 310 312 309 310 355 350 347 334 317 321 336 7 13 27 26 24 343 346 345 355 356 2 353 343
351 352 353 357 359 359 1 3 6 10 287 284 287 327 80 76 75 76 70 5 29 314 309 298 295 303 317 289 288 299 304 302 309 283 273 282 295 320 302 324 348 353 2 1 360 359 1 348 341 343 344 337 329 323
349 349 353 356 357 358 359 4 6 10 288 281 274 68 64 66 54 78 222 223 47 352 303 302 303 298 311 311 298 291 300 310 290 304 289 289 288 306 349 351 347 337 354 356 355 358 343 336 332 330 327 324 322 317
347 350 352 352 354 356 359 4 7 8 288 273 36 48 58 75 164 138 53 44 7 1 343 309 305 306 312 316 311 301 297 299 307 303 319 330 329 344 339 339 357 356 4 2 352 332 332 327 325 322 320 319 319 316
346 347 349 352 355 357 3 6 8 355 344 10 22 44 90 165 80 76 57 45 24 1 318 307 306 299 297 307 307 312 307 301 305 304 318 320 320 348 17 11 9 12 10 5 5 351 340 332 325 320 318 318 318 316
342 346 348 350 353 358 2 6 9 8 10 24 18 34 55 59 51 51 39 45 14 0 310 304 293 292 290 296 300 301 310 311 305 318 320 315 329 360 12 9 14 13 9 1 353 345 339 334 330 325 322 319 317 315
344 344 346 348 350 355 3 10 13 339 317 19 25 39 38 37 31 36 32 40 18 350 314 293 287 291 292 306 297 296 302 302 310 309 306 313 338 24 30 24 22 17 13 5 356 351 345 339 333 328 323 321 319 317
344 343 344 347 350 355 6 15 13 340 360 28 30 34 49 41 23 30 45 50 43 24 302 289 273 285 284 288 298 295 297 298 296 296 300 326 11 29 31 25 29 11 6 360 352 347 342 337 332 329 326 323 320 317
341 341 348 353 1 12 22 18 355 354 11 23 25 39 54 40 18 41 47 47 30 3 311 282 270 272 274 280 279 289 290 295 293 294 318 332 31 42 33 24 22 14 5 358 355 350 346 341 338 335 332 329 326 324
340 346 8 7 4 15 13 358 2 16 13 24 24 26 37 32 6 48 70 82 69 53 269 264 266 288 284 282 282 292 294 294 297 327 14 59 49 38 29 23 26 21 14 7 0 355 352 349 345 342 342 340 335 326
347 7 356 4 6 1 4 6 358 5 9 20 30 53 76 41 348 38 78 75 91 136 188 220 254 283 271 282 293 291 293 304 4 15 58 58 45 35 26 25 31 28 21 17 11 8 6 6 4 360 350 346 337 313
3 354 357 7 4 6 12 2 350 354 9 18 3 12 352 357 342 343 67 60 88 118 117 93 280 263 247 243 248 258 323 10 5 354 74 57 42 32 32 37 41 35 33 30 25 31 20 14 7 2 354 324 262 232
357 356 4 7 8 15 16 4 358 353 355 346 343 320 300 306 321 318 52 69 75 53 70 177 203 203 209 192 187 45 67 70 77 68 39 36 39 41 40 40 47 51 50 44 43 37 34 23 339 302 216 212 197 196
359 6 10 12 16 17 8 2 1 349 348 336 308 300 277 276 303 307 333 1 354 320 262 212 239 214 183 172 162 145 123 120 105 58 63 74 66 57 55 60 64 64 58 60 57 60 51 11 0 336 189 178 177 178
16 22 29 27 23 13 10 6 2 356 330 307 280 276 264 273 300 294 300 320 321 306 297 261 205 208 206 181 175 175 166 144 123 111 97 97 96 90 79 75 80 73 75 77 83 94 90 58 220 225 343 35 93 173
24 39 35 31 23 25 25 35 27 3 315 261 260 258 253 259 295 285 301 305 329 337 333 311 310 282 310 312 278 79 81 119 151 135 125 104 103 106 109 105 100 96 100 97 94 109 110 111 162 192 227 235 208 194
35 36 33 33 34 44 46 75 69 149 229 236 244 243 243 256 297 320 306 303 333 12 21 331 342 302 329 302 318 332 327 342 35 99 124 126 125 119 113 118 117 106 104 100 100 110 121 123 138 191 202 232 235 210
33 34 42 46 57 58 83 106 150 209 219 222 223 229 243 257 266 301 331 333 328 335 12 8 327 315 318 310 314 316 316 352 0 32 63 136 133 138 117 102 111 112 111 103 106 108 119 130 130 143 194 223 232 261
43 42 40 55 71 85 94 144 162 185 202 205 220 233 243 288 278 298 345 347 343 344 356 2 339 322 310 301 312 323 337 335 338 314 314 168 132 104 83 85 91 98 102 98 112 117 125 130 137 140 151 195 267 287
43 35 65 76 85 98 119 171 187 202 217 231 236 237 214 317 307 308 332 338 357 354 353 339 333 331 328 322 316 320 314 309 288 286 306 269 52 112 113 103 89 103 120 113 115 123 127 135 138 138 138 137 132 85
15 33 82 126 105 124 177 230 227 244 252 272 267 267 293 311 322 333 345 350 354 4 7 3 342 332 328 321 324 311 293 279 267 247 241 236 209 120 132 119 130 125 124 114 114 125 131 138 144 142 137 127 123 118
319 288 333 312 295 134 228 270 308 300 293 293 302 307 314 322 329 348 350 341 352 346 340 332 334 325 318 329 323 309 300 289 261 258 253 259 291 344 11 155 133 126 121 120 114 119 125 120 116 112 116 120 117 113
293 274 278 253 258 321 300 304 313 312 315 304 318 321 328 335 348 348 340 357 351 346 339 331 321 324 328 326 325 321 316 309 302 298 285 289 296 297 295 290 132 127 129 124 121 109 114 117 118 113 116 116 113 114
284 290 273 274 296 313 293 304 332 335 319 330 344 346 346 347 333 2 355 346 339 336 334 327 327 323 315 314 310 313 322 322 318 301 287 285 281 278 289 292 292 70 125 124 118 112 110 108 106 91 86 75 80 78
288 291 300 297 308 307 304 312 322 327 331 333 341 351 359 360 346 339 340 342 342 336 331 328 327 328 323 318 315 307 306 311 305 297 290 282 279 280 283 284 287 290 108 128 122 123 118 112 110 107 107 104 103 97
304 313 313 316 314 313 312 318 332 334 341 339 342 344 344 343 344 338 330 340 340 334 333 326 325 321 320 317 316 315 308 299 296 295 285 280 277 277 279 280 286 290 294 165 144 140 142 136 129 125 124 121 117 111
324 326 330 330 331 331 330 329 334 337 336 335 333 335 335 338 335 340 344 336 334 334 332 328 327 320 321 321 316 310 305 300 297 295 290 283 276 277 279 278 280 287 285 276 214 191 171 165 163 159 154 154 150 135